Tracking 19575 objects as of 18-Feb-2019
HD Live streaming from Space Station
objects crossing your sky now

METEOR 2-5 DEB

Track METEOR 2-5 DEB now!
10-day predictions


NORAD ID: 38278
Int'l Code: 1979-095BY
Perigee: 838.2 km
Apogee: 849.1 km
Inclination: 81.2 °
Period: 101.6 minutes
Semi major axis: 7214 km
RCS: 0.007 m2 (small)
Launch date: October 31, 1979
Source: Commonwealth of Independent States (former USSR) (CIS)
Launch site: PLESETSK MISSILE AND SPACE COMPLEX (PKMTR)

Note: This is SATELLITE DEBRIS
aabbcc
Your satellite tracking list
Your tracking list is empty




NASA's NSSDC Master Catalog

Two Line Element Set (TLE):
1 38278U 79095BY  19048.95805618 +.00000395 +00000-0 +19155-3 0  9993
2 38278 081.1961 286.4077 0007503 077.8592 341.9578 14.16704903379981
Source of the keplerian elements: AFSPC